sim
Sign-in with your pilot id or email,
or register
Callsign
Passwort

Schedule Details

Flight Number: RYR3525 (1)
Departure: London Luton Airport (EGGW) at 07:05
Arrival: Fuerteventura Airport (GCFV) at 11:25
Route: Ryanair Passenger Schedule. Enter filed route here before submitting Pirep.

Weather Information
Getting current METAR information for EGGW 182020Z AUTO 06007KT 9999 NCD 13/04 Q1026
Getting current METAR information for GCFV 182030Z 36014KT 9999 FEW045 18/11 Q1019

Schedule Frequency

Route Map